Regional Weather Roundup
Issued by NWS Albany, NY

Home | Current Version | Previous Version | Text Only | Print | Product List | Glossary On
Versions: 1 2 3 4 5 6 7 8 9 10 11 12 13 14 15 16 17 18 19 20 21 22 23 24 25 26 27 28 29 30 31 32 33 34 35 36 37 38 39 40 41 42 43 44 45 46 47 48 49 50
000
ASUS41 KALY 251110
RWRALY

NEW YORK STATE HOURLY WEATHER ROUNDUP
NATIONAL WEATHER SERVICE ALBANY NY
600 AM EST SUN JAN 25 2015

NOTE: "FAIR" INDICATES FEW OR NO CLOUDS BELOW 12,000 FEET WITH NO
SIGNIFICANT WEATHER AND/OR NO OBSTRUCTIONS TO VISIBILITY.

NYZ032-033-038>043-046>054-057>066-NYZ062>081-251200-
EAST


CITY           SKY/WX    TMP DP  RH WIND       PRES   REMARKS
ALBANY         FLURRIES  36  22  56 W13G31    29.53R WCI  27
GLENS FALLS    MOCLDY    32  27  81 SW12      29.45R WCI  23
POUGHKEEPSIE   CLOUDY    35  26  69 SW10      29.57R WCI  27
NEWBURGH       CLOUDY    32  27  80 NW12      29.57S WCI  23
MONTGOMERY     CLOUDY    35  25  66 SW9       29.56R WCI  28
WHITE PLAINS   MOCLDY    33  24  69 W7        29.59R WCI  27
ISLIP          CLEAR     34  25  69 W12       29.59R WCI  25
NEW YORK CITY  PTCLDY    35  24  64 W18G29    29.63R WCI  24
CENTRAL PARK   PTCLDY    35  24  64 W6        29.65R WCI  30
$$

NYZ005>009-017-018-044>046-055-056-251200-
CENTRAL


CITY           SKY/WX    TMP DP  RH WIND       PRES   REMARKS
FULTON         CLOUDY    25  17  72 NW17G24   29.67R WCI  12
SYRACUSE       FLURRIES  26  18  71 W22G35    29.64R WCI  12
ROME           MOCLDY    28  20  71 NW23G33   29.60R WCI  14
ELMIRA         MOCLDY    33  20  58 NW18G24   29.65R WCI  22
BINGHAMTON     LGT SNOW  29  22  75 NW16G24   29.56R WCI  17
MONTICELLO     CLOUDY    30  25  80 W10       29.53R WCI  21
$$

NYZ026>034-041>043-251200-
NORTH


CITY           SKY/WX    TMP DP  RH WIND       PRES   REMARKS
WATERTOWN      PTCLDY    16   6  65 N17       29.70R WCI   0
FORT DRUM      NOT AVBL
MASSENA        PTCLDY     9   1  70 W13G21    29.68R WCI  -7
SARANAC LAKE   LGT SNOW  14  11  87 NW10G17   29.44R FOG     WCI   1
PLATTSBURGH    CLOUDY    23  13  65 NW14G28   29.52R WCI  11
$$

NYZ001>004-010>016-019>021-251200-
WEST


CITY           SKY/WX    TMP DP  RH WIND       PRES   REMARKS
NIAGARA FALLS  CLEAR     19  12  74 N15       29.78R WCI   5
BUFFALO        MOCLDY    22  14  71 NW12      29.76R WCI  10
DUNKIRK        CLOUDY    27  21  78 NW13      29.76R WCI  16
JAMESTOWN      CLOUDY    25  19  80 NW7       29.69R WCI  17
WELLSVILLE     CLOUDY    25  17  72 NW17G28   29.64R WCI  12
ROCHESTER      PTCLDY    23  12  62 NW12      29.73R WCI  12
PENN YAN       CLOUDY    27  18  69 NW16G25   29.67R WCI  15
$$

             KEY
       WCI = WIND CHILL INDEX
       VSB = VISIBILITY
       HX  = HEAT INDEX
$$



USA.gov is the U.S. government's official web portal to all federal, state and local government web resources and services.